Simultaneous Nadir Overpasses (SNOs) Predictions

Prediction of SNOs between FY3D and NOAA-19 Satellite Orbit:

Table of predicted SNOs for the next 14.0 days since TLE Epoch: 9/23/2023
Index Date (FY3D) Time (FY3D) Lat,Lon (FY3D) SZA (FY3D ) Date (NOAA-19) Time (NOAA-19) Lat,Lon (NOAA-19) SZA (NOAA-19 ) Distance(km) Time Diff (sec)
1 09/23/2023 10:19:47 76.12, 19.23 76.14 09/23/2023 10:18:37 76.11, 17.29 76.18 51.75 70
2 09/23/2023 11:10:38 -76.37,-174.38 103.59 09/23/2023 11:09:35 -76.38,-174.47 103.57 2.54 63
3 09/23/2023 12:01:24 76.37, -7.08 76.43 09/23/2023 12:00:30 76.37, -7.23 76.44 4.07 54
4 09/23/2023 12:52:10 -76.40, 160.14 103.53 09/23/2023 12:51:33 -76.41, 160.18 103.51 2.04 37
5 09/23/2023 13:42:56 76.40, -32.57 76.49 09/23/2023 13:42:28 76.41, -32.59 76.50 0.48 28
6 09/23/2023 14:33:42 -76.43, 134.65 103.47 09/23/2023 14:33:32 -76.41, 134.66 103.49 2.38 10
7 09/23/2023 15:24:28 76.43, -58.06 76.55 09/23/2023 15:24:26 76.44, -57.94 76.56 3.26 2
8 09/23/2023 16:15:13 -76.41, 109.33 103.46 09/23/2023 16:15:30 -76.44, 109.30 103.43 3.39 17
9 09/23/2023 17:05:59 76.42, -83.38 76.56 09/23/2023 17:06:25 76.43, -83.46 76.58 2.84 26
10 09/23/2023 17:56:45 -76.44, 83.84 103.40 09/23/2023 17:57:29 -76.43, 83.78 103.41 1.83 44
11 09/23/2023 18:47:31 76.45,-108.87 76.62 09/23/2023 18:48:23 76.47,-108.81 76.64 3.01 52
12 09/23/2023 19:38:17 -76.47, 58.35 103.34 09/23/2023 19:39:27 -76.47, 58.43 103.35 1.86 70
13 09/23/2023 20:29:07 76.65,-135.04 76.87 09/23/2023 20:30:18 76.63,-133.64 76.82 36.14 71



Historial Predications of SNOs between FY3D and NOAA-19
